TimeMST,TemperatureF,Dew PointF,Humidity,Sea Level PressureIn,VisibilityMPH,Wind Direction,Wind SpeedMPH,Gust SpeedMPH,PrecipitationIn,Events,Conditions,WindDirDegrees,DateUTC
12:15 AM,42.1,17.6,37,30.04,10.0,SSE,8.1,-,N/A,,Clear,160,2013-03-08 07:15:00
12:35 AM,40.5,18.3,41,30.04,10.0,South,5.8,-,N/A,,Clear,170,2013-03-08 07:35:00
12:55 AM,40.1,18.0,41,30.04,10.0,South,4.6,-,N/A,,Clear,180,2013-03-08 07:55:00
1:15 AM,39.7,18.1,42,30.02,10.0,Calm,Calm,-,N/A,,Clear,0,2013-03-08 08:15:00
1:35 AM,37.6,18.5,46,30.01,10.0,SW,3.5,-,N/A,,Clear,220,2013-03-08 08:35:00
1:55 AM,32.2,18.0,56,30.00,10.0,NE,6.9,-,N/A,,Clear,50,2013-03-08 08:55:00
2:15 AM,33.3,18.5,55,30.00,10.0,NE,4.6,-,N/A,,Clear,40,2013-03-08 09:15:00
2:35 AM,30.2,18.1,61,29.99,10.0,North,4.6,-,N/A,,Clear,360,2013-03-08 09:35:00
2:55 AM,30.2,18.3,61,29.98,10.0,North,4.6,-,N/A,,Clear,350,2013-03-08 09:55:00
3:15 AM,30.2,18.0,60,29.98,10.0,South,4.6,-,N/A,,Clear,190,2013-03-08 10:15:00
3:35 AM,28.0,18.1,66,29.99,10.0,SSW,4.6,-,N/A,,Clear,210,2013-03-08 10:35:00
3:55 AM,25.7,17.6,71,29.99,10.0,SSW,5.8,-,N/A,,Clear,210,2013-03-08 10:55:00
4:15 AM,27.5,17.6,66,29.99,10.0,Calm,Calm,-,N/A,,Scattered Clouds,0,2013-03-08 11:15:00
4:35 AM,29.5,18.3,63,30.00,10.0,Calm,Calm,-,N/A,,Overcast,0,2013-03-08 11:35:00
4:55 AM,30.6,18.9,62,30.00,10.0,Calm,Calm,-,N/A,,Mostly Cloudy,0,2013-03-08 11:55:00
5:15 AM,29.8,18.3,62,30.00,10.0,Calm,Calm,-,N/A,,Scattered Clouds,0,2013-03-08 12:15:00
5:35 AM,30.4,19.4,64,30.00,10.0,South,4.6,-,N/A,,Mostly Cloudy,180,2013-03-08 12:35:00
5:55 AM,30.4,19.4,64,30.00,10.0,SW,4.6,-,N/A,,Scattered Clouds,230,2013-03-08 12:55:00
6:15 AM,27.5,18.9,70,30.00,10.0,Calm,Calm,-,N/A,,Scattered Clouds,0,2013-03-08 13:15:00
6:35 AM,27.1,19.0,72,30.00,10.0,SE,3.5,-,N/A,,Mostly Cloudy,130,2013-03-08 13:35:00
6:55 AM,27.5,19.6,72,30.00,10.0,Calm,Calm,-,N/A,,Scattered Clouds,0,2013-03-08 13:55:00
7:15 AM,30.6,21.4,69,30.00,10.0,Calm,Calm,-,N/A,,Mostly Cloudy,0,2013-03-08 14:15:00
7:35 AM,32.2,21.7,65,30.00,10.0,Calm,Calm,-,N/A,,Scattered Clouds,0,2013-03-08 14:35:00
7:55 AM,36.1,22.8,58,30.00,10.0,Calm,Calm,-,N/A,,Mostly Cloudy,0,2013-03-08 14:55:00
8:15 AM,40.5,22.5,49,30.00,10.0,Calm,Calm,-,N/A,,Mostly Cloudy,0,2013-03-08 15:15:00
8:35 AM,45.7,23.2,41,29.99,10.0,Calm,Calm,-,N/A,,Scattered Clouds,0,2013-03-08 15:35:00
8:55 AM,51.3,19.4,29,29.99,10.0,SSE,8.1,-,N/A,,Clear,150,2013-03-08 15:55:00
9:15 AM,53.4,18.3,25,29.98,10.0,SSE,8.1,-,N/A,,Clear,160,2013-03-08 16:15:00
9:35 AM,54.5,17.6,23,29.98,10.0,South,6.9,-,N/A,,Clear,180,2013-03-08 16:35:00
9:55 AM,56.8,18.5,22,29.98,10.0,South,10.4,-,N/A,,Clear,170,2013-03-08 16:55:00
10:15 AM,58.1,17.8,21,29.97,10.0,South,13.8,17.3,N/A,,Clear,180,2013-03-08 17:15:00
10:35 AM,57.2,18.5,22,29.96,10.0,South,17.3,24.2,N/A,,Clear,190,2013-03-08 17:35:00
10:55 AM,57.6,19.4,23,29.96,10.0,SSW,18.4,26.5,N/A,,Scattered Clouds,200,2013-03-08 17:55:00
11:15 AM,57.4,19.9,23,29.96,10.0,SW,13.8,20.7,N/A,,Overcast,230,2013-03-08 18:15:00
11:35 AM,59.0,21.9,24,29.94,10.0,SSW,18.4,23.0,N/A,,Overcast,200,2013-03-08 18:35:00
11:55 AM,58.3,22.8,25,29.94,10.0,SSW,19.6,33.4,N/A,,Mostly Cloudy,200,2013-03-08 18:55:00
12:15 PM,55.9,27.0,33,29.94,10.0,South,28.8,34.5,N/A,,Overcast,190,2013-03-08 19:15:00
12:35 PM,55.2,28.2,36,29.93,10.0,SSW,20.7,-,N/A,,Mostly Cloudy,210,2013-03-08 19:35:00
12:55 PM,57.4,29.5,35,29.90,10.0,SSW,21.9,26.5,N/A,,Scattered Clouds,200,2013-03-08 19:55:00
1:15 PM,59.9,28.0,30,29.89,10.0,SSW,21.9,31.1,N/A,,Clear,200,2013-03-08 20:15:00
1:35 PM,60.4,28.0,29,29.86,10.0,SSW,26.5,33.4,N/A,,Scattered Clouds,200,2013-03-08 20:35:00
1:55 PM,59.4,28.2,31,29.85,10.0,South,28.8,39.1,N/A,,Scattered Clouds,180,2013-03-08 20:55:00
2:15 PM,56.7,29.3,35,29.86,10.0,South,23.0,31.1,N/A,Thunderstorm,Mostly Cloudy,190,2013-03-08 21:15:00
2:35 PM,52.0,34.2,51,29.88,10.0,West,35.7,40.3,N/A,,Overcast,270,2013-03-08 21:35:00
2:55 PM,42.3,39.0,88,29.92,5.0,West,18.4,34.5,N/A,Rain,Light Rain,270,2013-03-08 21:55:00
3:15 PM,44.6,41.0,87,29.90,10.0,West,13.8,19.6,N/A,Rain,Light Rain,280,2013-03-08 22:15:00
3:35 PM,44.6,38.7,80,29.90,10.0,West,13.8,18.4,N/A,Rain,Light Rain,270,2013-03-08 22:35:00
3:55 PM,44.6,39.9,84,29.90,10.0,SW,4.6,-,N/A,Rain,Light Rain,220,2013-03-08 22:55:00
4:15 PM,45.9,39.9,80,29.89,10.0,South,10.4,-,N/A,,Overcast,180,2013-03-08 23:15:00
4:35 PM,45.1,39.4,80,29.87,10.0,South,12.7,-,N/A,,Overcast,180,2013-03-08 23:35:00
4:55 PM,46.4,41.0,81,29.86,10.0,SSE,13.8,-,N/A,Rain,Light Rain,160,2013-03-08 23:55:00
5:15 PM,45.5,39.9,81,29.86,10.0,SSE,15.0,-,N/A,,Scattered Clouds,160,2013-03-09 00:15:00
5:35 PM,44.2,39.6,84,29.86,10.0,South,16.1,-,N/A,,Scattered Clouds,170,2013-03-09 00:35:00
5:55 PM,43.7,39.7,86,29.86,10.0,SSW,9.2,-,N/A,,Mostly Cloudy,200,2013-03-09 00:55:00
6:15 PM,43.2,39.6,87,29.84,10.0,South,6.9,-,N/A,,Mostly Cloudy,180,2013-03-09 01:15:00
6:35 PM,42.1,39.0,89,29.84,10.0,South,9.2,-,N/A,,Scattered Clouds,170,2013-03-09 01:35:00
6:55 PM,41.2,38.7,91,29.84,10.0,SSE,10.4,-,N/A,,Scattered Clouds,160,2013-03-09 01:55:00
7:15 PM,42.1,39.4,90,29.84,10.0,SSE,10.4,-,N/A,,Mostly Cloudy,160,2013-03-09 02:15:00
7:35 PM,42.8,39.6,88,29.84,10.0,SSE,16.1,-,N/A,Thunderstorm,Thunderstorm,150,2013-03-09 02:35:00
7:55 PM,43.3,38.7,84,29.84,10.0,South,15.0,19.6,N/A,,Overcast,180,2013-03-09 02:55:00
8:15 PM,43.3,39.4,86,29.86,10.0,WNW,17.3,23.0,N/A,Rain,Light Rain,290,2013-03-09 03:15:00
8:35 PM,39.9,35.4,84,29.87,5.0,WSW,25.3,34.5,0.02,Rain-Thunderstorm,Thunderstorms and Rain,240,2013-03-09 03:35:00
8:55 PM,39.2,35.2,86,29.84,10.0,SW,8.1,-,0.03,,Overcast,220,2013-03-09 03:55:00
9:15 PM,39.4,36.1,88,29.84,10.0,SE,9.2,-,N/A,,Overcast,140,2013-03-09 04:15:00
9:35 PM,38.8,35.8,89,29.84,10.0,SE,6.9,-,N/A,,Overcast,140,2013-03-09 04:35:00
9:55 PM,39.9,36.5,88,29.84,10.0,SSE,9.2,-,N/A,,Overcast,160,2013-03-09 04:55:00
10:15 PM,40.3,36.5,86,29.84,10.0,South,8.1,-,N/A,,Overcast,170,2013-03-09 05:15:00
10:35 PM,40.5,37.0,88,29.83,10.0,South,9.2,-,N/A,,Light Drizzle,190,2013-03-09 05:35:00
10:55 PM,40.3,35.6,83,29.84,10.0,SW,16.1,23.0,N/A,Rain,Light Rain,230,2013-03-09 05:55:00
11:15 PM,38.5,34.7,86,29.83,5.0,SW,10.4,-,0.01,Rain,Rain,230,2013-03-09 06:15:00
11:35 PM,38.5,35.1,87,29.82,10.0,SSW,5.8,-,0.01,Rain,Light Rain,210,2013-03-09 06:35:00
11:55 PM,38.7,36.0,90,29.81,10.0,WSW,8.1,-,0.01,Rain,Rain,240,2013-03-09 06:55:00